EW5231 Weather Reports


time (UTC)temp
C
wind
direction
speed
KPH
gust
KPH
rain 1hr
cm
rain 24hr
cm
rain mn
cm
humidity
%
barometer
mb
20260507151512 7 198 14.5 25.7 0.00 1.78 0.03 51 1007.5
20260507150012 7 317 16.1 27.4 0.00 1.85 0.03 53 1007.5
20260507144509 7 300 17.7 25.7 0.00 1.85 0.03 55 1007.2
20260507143004 6 308 12.9 30.6 0.00 1.85 0.03 62 1007.3
20260507141502 6 294 11.3 24.1 0.00 1.85 0.03 60 1007.5
20260507140058 6 327 8.0 17.7 0.00 1.98 0.03 65 1007.5
20260507134600 6 299 8.0 17.7 0.00 1.98 0.03 72 1007.5
20260507133052 5 301 8.0 17.7 0.00 1.98 0.03 82 1007.5
20260507131546 5 311 8.0 14.5 0.00 1.98 0.03 86 1007.4
20260507130057 3 271 6.4 16.1 0.00 2.08 0.03 91 1007.5
20260507124554 3 294 11.3 27.4 0.00 2.08 0.03 89 1007.6
20260507123012 4 293 6.4 14.5 0.00 2.08 0.03 92 1007.3
20260507121508 4 281 3.2 17.7 0.00 2.08 0.03 94 1007.1
20260507120005 4 277 4.8 12.9 0.00 2.08 0.03 94 1007.2
20260507114503 4 298 3.2 6.4 0.00 2.08 0.03 97 1006.9
20260507113100 3 257 0.0 3.2 0.00 2.08 0.03 97 1006.7
20260507111558 3 176 0.0 1.6 0.00 2.08 0.03 97 1006.8
20260507110055 3 178 0.0 4.8 0.00 2.08 0.03 97 1006.8
20260507104555 2 138 0.0 0.0 0.00 2.08 0.03 97 1006.9
20260507103052 2 138 0.0 3.2 0.00 2.08 0.03 97 1006.9
20260507101559 2 138 1.6 3.2 0.00 2.08 0.03 97 1006.8
20260507100023 2 138 0.0 3.2 0.00 2.11 0.03 96 1006.7
20260507094519 2 315 1.6 3.2 0.00 2.11 0.03 96 1006.6
20260507093014 2 315 1.6 3.2 0.00 2.11 0.03 96 1006.8
20260507091513 2 257 0.0 0.0 0.00 2.11 0.03 97 1006.8
20260507090011 2 257 0.0 3.2 0.00 2.11 0.03 97 1006.7
20260507084511 2 257 1.6 3.2 0.00 2.11 0.03 97 1006.9
20260507083012 2 5 0.0 1.6 0.03 2.11 0.03 97 1007.0
20260507081508 2 5 0.0 3.2 0.03 2.11 0.03 97 1007.1
20260507080005 2 5 0.0 3.2 0.03 2.11 0.03 96 1006.9
20260507074504 2 5 1.6 3.2 0.03 2.11 0.03 96 1006.8
20260507073102 2 5 1.6 3.2 0.00 2.08 0.00 96 1006.7
20260507071555 2 5 0.0 3.2 0.00 2.08 0.00 96 1006.4
20260507070052 3 330 0.0 1.6 0.00 2.08 2.08 97 1006.3
20260507064552 3 330 0.0 3.2 0.00 2.08 2.08 97 1006.5
20260507063028 3 330 0.0 1.6 0.00 2.08 2.08 96 1006.6
20260507061521 3 360 0.0 4.8 0.00 2.08 2.08 97 1006.5
20260507060021 3 315 4.8 11.3 0.00 2.39 2.08 96 1006.6
20260507054520 3 300 1.6 6.4 0.00 2.39 2.08 96 1006.9
20260507053017 3 315 3.2 8.0 0.00 2.39 2.08 97 1006.8
20260507051517 3 321 4.8 12.9 0.00 2.39 2.08 97 1006.8
20260507050011 3 247 1.6 12.9 0.00 2.49 2.08 97 1006.8
20260507044510 3 323 4.8 9.7 0.00 2.49 2.08 97 1006.7
20260507043009 3 328 3.2 9.7 0.00 2.49 2.08 97 1006.8
20260507041522 3 289 4.8 12.9 0.00 2.49 2.08 97 1006.9
20260507040005 3 355 1.6 9.7 0.00 2.49 2.08 97 1006.6
20260507034504 3 52 4.8 9.7 0.00 2.49 2.08 97 1006.5
20260507033003 3 333 3.2 6.4 0.00 2.49 2.08 97 1006.8
20260507031502 3 351 1.6 6.4 0.00 2.49 2.08 97 1006.6
20260507030100 3 292 4.8 12.9 0.03 2.49 2.08 97 1006.7
20260507024616 3 317 4.8 8.0 0.03 2.49 2.08 97 1006.9
20260507023055 3 293 1.6 12.9 0.08 2.49 2.08 97 1007.0
20260507021554 3 339 4.8 9.7 0.13 2.49 2.08 97 1006.9
20260507020107 4 342 4.8 9.7 0.10 2.46 2.06 97 1006.8
20260507014601 4 308 6.4 16.1 0.10 2.46 2.06 97 1007.0
20260507013050 4 321 3.2 12.9 0.08 2.41 2.01 97 1006.9
20260507011545 4 300 3.2 9.7 0.05 2.36 1.96 97 1006.8
20260507010045 4 313 4.8 9.7 0.05 2.36 1.96 97 1006.5
20260507004544 4 296 3.2 8.0 0.08 2.36 1.96 97 1006.2
20260507003043 4 292 1.6 8.0 0.10 2.34 1.93 97 1006.0
20260507001544 4 309 4.8 12.9 0.10 2.31 1.91 97 1005.9
20260507000039 4 309 3.2 12.9 0.13 2.31 1.91 97 1005.1
20260506234539 4 299 3.2 8.0 0.10 2.29 1.88 97 1005.1
20260506233135 4 325 4.8 9.7 0.10 2.26 1.85 96 1005.0
20260506231544 5 5 4.8 14.5 0.05 2.21 1.80 97 1004.9
20260506230041 5 313 4.8 14.5 0.03 2.18 1.78 96 1004.7
20260506224529 5 286 9.7 19.3 0.03 2.18 1.78 96 1004.7
20260506223042 5 335 4.8 12.9 0.00 2.16 1.75 97 1004.5
20260506221525 5 350 3.2 12.9 0.00 2.16 1.75 96 1004.5
20260506220026 5 326 4.8 14.5 0.00 2.16 1.75 96 1004.4
20260506214522 5 347 3.2 6.4 0.00 2.16 1.75 96 1004.3
20260506213021 5 360 3.2 8.0 0.03 2.16 1.75 96 1004.3
20260506211519 5 22 0.0 6.4 0.08 2.16 1.75 97 1004.3
20260506210022 5 299 1.6 9.7 0.10 2.29 1.75 96 1004.3
20260506204517 5 308 3.2 12.9 0.13 2.29 1.75 96 1004.2
20260506203024 5 306 3.2 12.9 0.13 2.26 1.73 96 1004.3
20260506201529 5 9 4.8 11.3 0.13 2.21 1.68 96 1004.0
20260506200014 5 294 1.6 4.8 0.10 2.26 1.65 96 1003.9
20260506194510 5 259 6.4 14.5 0.08 2.24 1.63 96 1004.0
20260506193009 5 307 6.4 17.7 0.05 2.21 1.60 96 1004.1
20260506191507 5 360 4.8 11.3 0.00 2.16 1.55 96 1004.1
20260506190006 6 328 4.8 14.5 0.05 2.16 1.55 96 1003.9
20260506184534 6 319 0.0 6.4 0.25 2.16 1.55 96 1003.8
20260506183042 6 328 1.6 8.0 0.33 2.16 1.55 96 1004.0
20260506181530 6 296 1.6 8.0 0.38 2.13 1.52 96 1004.1
20260506180030 6 264 3.2 16.1 0.69 2.11 1.50 96 1004.6
20260506174528 6 284 6.4 11.3 0.58 1.91 1.30 96 1004.4
20260506173028 6 21 0.0 12.9 0.61 1.83 1.22 96 1004.5
20260506171529 6 5 1.6 16.1 0.61 1.75 1.14 96 1004.5
20260506170023 6 308 6.4 17.7 0.30 1.40 0.79 95 1004.2
20260506164518 7 38 0.0 9.7 0.23 1.30 0.69 96 1004.1
20260506163015 7 312 1.6 6.4 0.15 1.19 0.58 96 1004.2
20260506161544 7 326 0.0 6.4 0.15 1.14 0.53 96 1004.3
20260506160043 8 300 6.4 12.9 0.15 1.09 0.48 95 1004.5
20260506154520 11 146 4.8 9.7 0.13 1.07 0.46 97 1004.5
20260506153018 11 165 8.0 19.3 0.13 1.04 0.43 97 1004.4